Weather History for Chester, CT

Change the Weather History Date:

Thursday, August 22, 2013

  Actual Average (KHVN) Record (KHVN)
Temperature  
Mean Temperature 72 °F -  
Max Temperature 75 °F 77 °F 93 °F (1976)
Min Temperature 69 °F 62 °F 47 °F (1982)
Cooling Degree Days 7    
Growing Degree Days 22 (Base 50)    
Moisture  
Dew Point 71 °F    
Average Humidity 98    
Maximum Humidity 100    
Minimum Humidity 89    
Precipitation  
Precipitation 0.39 in - - ()
Sea Level Pressure  
Sea Level Pressure 30.00 in    
Wind  
Wind Speed 5 mph (SW)    
Max Wind Speed 12 mph    
Max Gust Speed 20 mph    
Visibility 4 miles    
Events Fog , Rain    
Averages and records for this station are not official NWS values.
T = Trace of Precipitation, MM = Missing Value Source: NWS Daily Summary

Daily Weather History Graph

Daily Weather History Graph

Search for Another Location

Airport:

Trip Planner

Search our weather history database for the weather conditions in past years. The results will help you decide how hot, cold, wet, or windy it might be!

Date:

Astronomy

Aug. 22, 2013 Rise Set
Actual Time 6:06 AM EDT 7:38 PM EDT
Civil Twilight 5:37 AM EDT 8:07 PM EDT
Nautical Twilight 5:02 AM EDT 8:42 PM EDT
Astronomical Twilight 4:24 AM EDT 9:19 PM EDT
Moon 8:18 PM EDT 7:53 AM EDT
Length of Visible Light 14h 30m
Length of Day
13h 32m
Waning Gibbous, 97% of the Moon is Illuminated
Aug 22
Waning Gibbous
Aug 28
Last Quarter
Sep 5
New
Sep 12
First Quarter
Sep 19
Full

Hourly Weather History & Observations

Time (EDT) Temp. Dew Point Humidity Pressure Visibility Wind Dir Wind Speed Gust Speed Precip Events Conditions
12:15 AM 69.8 °F 69.8 °F 100% 30.07 in 4.0 mi SSW 4.6 mph - N/A   Clear
12:35 AM 71.6 °F 71.6 °F 100% 30.07 in 3.0 mi SW 4.6 mph - N/A   Clear
12:55 AM 71.6 °F 71.6 °F 100% 30.07 in 3.0 mi SW 4.6 mph - N/A   Clear
1:15 AM 71.6 °F 71.6 °F 100% 30.08 in 3.0 mi SW 4.6 mph - N/A   Clear
1:35 AM 71.6 °F 71.6 °F 100% 30.08 in 2.5 mi WSW 4.6 mph - N/A   Clear
1:55 AM 69.8 °F 69.8 °F 100% 30.09 in 1.0 mi WSW 4.6 mph - N/A   Mostly Cloudy
2:15 AM 69.8 °F 69.8 °F 100% 30.09 in 2.5 mi WSW 4.6 mph - N/A   Partly Cloudy
2:35 AM 69.8 °F 69.8 °F 100% 30.08 in 2.5 mi WSW 4.6 mph - N/A   Clear
2:55 AM 69.8 °F 69.8 °F 100% 30.08 in 3.0 mi WSW 5.8 mph - N/A   Clear
3:15 AM 69.8 °F 69.8 °F 100% 30.08 in 2.5 mi WSW 3.5 mph - N/A   Clear
3:35 AM 69.8 °F 69.8 °F 100% 30.07 in 2.5 mi WSW 3.5 mph - N/A   Clear
3:55 AM 69.8 °F 69.8 °F 100% 30.07 in 2.0 mi WSW 4.6 mph - N/A   Clear
4:15 AM 69.8 °F 69.8 °F 100% 30.07 in 2.0 mi WSW 4.6 mph - N/A   Scattered Clouds
4:35 AM 69.8 °F 69.8 °F 100% 30.05 in 0.2 mi WSW 4.6 mph - N/A Fog Fog
4:55 AM 69.8 °F 69.8 °F 100% 30.05 in 2.5 mi WSW 4.6 mph - N/A   Partly Cloudy
5:15 AM 69.8 °F 69.8 °F 100% 30.05 in 2.5 mi SW 4.6 mph - N/A   Clear
5:35 AM 69.8 °F 69.8 °F 100% 30.04 in 2.0 mi SW 3.5 mph - N/A   Clear
5:55 AM 69.8 °F 69.8 °F 100% 30.04 in 2.0 mi Calm Calm - N/A   Scattered Clouds
6:15 AM 69.8 °F 69.8 °F 100% 30.04 in 1.2 mi Calm Calm - N/A   Overcast
6:35 AM 69.8 °F 69.8 °F 100% 30.04 in 0.2 mi SSW 3.5 mph - N/A Fog Fog
6:55 AM 69.8 °F 69.8 °F 100% 30.04 in 0.2 mi SW 4.6 mph - N/A Fog Fog
7:15 AM 71.6 °F 71.6 °F 100% 30.04 in 0.2 mi SW 3.5 mph - N/A Fog Fog
7:35 AM 71.6 °F 71.6 °F 100% 30.04 in 0.2 mi Calm Calm - N/A Fog Fog
7:55 AM 71.6 °F 71.6 °F 100% 30.04 in 0.2 mi Calm Calm - N/A Fog Fog
8:15 AM 71.6 °F 71.6 °F 100% 30.04 in 2.0 mi SSW 5.8 mph - N/A   Overcast
8:35 AM 71.6 °F 71.6 °F 100% 30.04 in 2.5 mi SW 5.8 mph - N/A   Overcast
8:55 AM 73.4 °F 71.6 °F 94% 30.04 in 3.0 mi SSW 6.9 mph - N/A   Overcast
9:15 AM 73.4 °F 71.6 °F 94% 30.03 in 5.0 mi SW 8.1 mph - N/A   Mostly Cloudy
9:35 AM 73.4 °F 71.6 °F 94% 30.04 in 5.0 mi WSW 8.1 mph - N/A   Overcast
9:55 AM 75.2 °F 71.6 °F 89% 30.03 in 6.0 mi SW 9.2 mph - N/A   Mostly Cloudy
10:15 AM 75.2 °F 71.6 °F 89% 30.03 in 8.0 mi WSW 9.2 mph - N/A   Mostly Cloudy
10:35 AM 75.2 °F 71.6 °F 89% 30.04 in 10.0 mi WSW 6.9 mph - N/A   Overcast
10:55 AM 75.2 °F 71.6 °F 89% 30.04 in 10.0 mi SW 6.9 mph - N/A   Mostly Cloudy
11:15 AM 73.4 °F 71.6 °F 94% 30.05 in 9.0 mi SW 11.5 mph 18.4 mph N/A   Mostly Cloudy
11:35 AM 71.6 °F 69.8 °F 94% 30.06 in 1.8 mi WSW 8.1 mph 19.6 mph 0.04 in Rain Heavy Rain
11:55 AM 69.8 °F 69.8 °F 100% 30.05 in 2.5 mi Calm Calm - 0.21 in Rain Light Rain
12:15 PM 69.8 °F 69.8 °F 100% 30.04 in 1.8 mi SW 6.9 mph - 0.05 in Rain Heavy Rain
12:35 PM 69.8 °F 69.8 °F 100% 30.04 in 2.5 mi WSW 5.8 mph - 0.14 in Rain Light Rain
12:55 PM 69.8 °F 69.8 °F 100% 30.03 in 3.0 mi SW 4.6 mph - 0.17 in Rain Rain
1:15 PM 69.8 °F 69.8 °F 100% 30.01 in 4.0 mi SSW 5.8 mph - 0.01 in Rain Light Rain
1:35 PM 71.6 °F 71.6 °F 100% 29.99 in 7.0 mi SW 5.8 mph - 0.01 in   Mostly Cloudy
1:55 PM 71.6 °F 71.6 °F 100% 29.98 in 8.0 mi WSW 4.6 mph - 0.01 in   Scattered Clouds
2:15 PM 71.6 °F 71.6 °F 100% 29.98 in 8.0 mi WNW 3.5 mph - N/A   Partly Cloudy
2:35 PM 73.4 °F 71.6 °F 94% 29.98 in 9.0 mi WSW 4.6 mph - N/A   Scattered Clouds
2:55 PM 73.4 °F 71.6 °F 94% 29.97 in 9.0 mi SSW 4.6 mph - N/A   Scattered Clouds
3:15 PM 73.4 °F 71.6 °F 94% 29.97 in 9.0 mi SSW 5.8 mph - N/A   Scattered Clouds
3:35 PM 73.4 °F 71.6 °F 94% 29.96 in 10.0 mi South 5.8 mph - N/A   Scattered Clouds
3:55 PM 75.2 °F 71.6 °F 89% 29.94 in 10.0 mi South 9.2 mph - N/A   Clear
4:15 PM 73.4 °F 71.6 °F 94% 29.94 in 10.0 mi WSW 4.6 mph - N/A   Partly Cloudy
4:35 PM 73.4 °F 71.6 °F 94% 29.93 in 10.0 mi South 6.9 mph - N/A   Partly Cloudy
4:55 PM 73.4 °F 71.6 °F 94% 29.92 in 8.0 mi South 4.6 mph - N/A   Mostly Cloudy
5:15 PM 73.4 °F 73.4 °F 100% 29.92 in 7.0 mi South 5.8 mph - N/A   Overcast
5:35 PM 73.4 °F 73.4 °F 100% 29.91 in 5.0 mi South 5.8 mph - N/A   Overcast
5:55 PM 73.4 °F 73.4 °F 100% 29.91 in 5.0 mi SSW 4.6 mph - N/A   Overcast
6:15 PM 73.4 °F 73.4 °F 100% 29.92 in 5.0 mi SSW 5.8 mph - N/A   Overcast
6:35 PM 73.4 °F 73.4 °F 100% 29.91 in 4.0 mi South 6.9 mph - N/A   Overcast
6:55 PM 73.4 °F 73.4 °F 100% 29.91 in 4.0 mi SSW 5.8 mph - N/A   Overcast
7:15 PM 73.4 °F 73.4 °F 100% 29.91 in 4.0 mi SSW 6.9 mph - N/A   Overcast
7:35 PM 73.4 °F 71.6 °F 94% 29.90 in 4.0 mi SW 5.8 mph - N/A   Mostly Cloudy
7:55 PM 71.6 °F 71.6 °F 100% 29.90 in 3.0 mi SW 4.6 mph - N/A   Clear
8:15 PM 71.6 °F 71.6 °F 100% 29.90 in 3.0 mi SSW 3.5 mph - N/A   Clear
8:35 PM 71.6 °F 71.6 °F 100% 29.91 in 2.5 mi SW 3.5 mph - N/A   Mostly Cloudy
8:55 PM 71.6 °F 71.6 °F 100% 29.91 in 2.5 mi SSW 4.6 mph - N/A   Overcast
9:15 PM 71.6 °F 71.6 °F 100% 29.91 in 3.0 mi SSW 8.1 mph - N/A   Overcast
9:35 PM 71.6 °F 71.6 °F 100% 29.91 in 5.0 mi SSW 9.2 mph - N/A   Overcast
9:55 PM 71.6 °F 71.6 °F 100% 29.91 in 6.0 mi SW 8.1 mph - N/A   Overcast
10:15 PM 71.6 °F 71.6 °F 100% 29.90 in 4.0 mi SW 6.9 mph - N/A   Overcast
10:35 PM 71.6 °F 71.6 °F 100% 29.90 in 4.0 mi SW 6.9 mph - N/A   Overcast
10:55 PM 71.6 °F 71.6 °F 100% 29.89 in 5.0 mi SW 8.1 mph - N/A   Overcast
11:15 PM 69.8 °F 69.8 °F 100% 29.89 in 5.0 mi SW 5.8 mph - N/A   Mostly Cloudy
11:35 PM 69.8 °F 69.8 °F 100% 29.89 in 7.0 mi WSW 3.5 mph - N/A   Partly Cloudy
11:55 PM 69.8 °F 69.8 °F 100% 29.89 in 6.0 mi West 3.5 mph - N/A   Clear